Дата Пункты Температура Давл., мм. Влажн., % Ветер Погодные явления
Воздуха Воды Направл. Скорость
08.02.18 02:00 Одесса 2.0 3.0 754 98 В 7 14 ЧАСОВ
08.02.18 11:00 Одесса 2.0 3.0 757 96 В 5 11 ЧАСОВ
08.02.18 08:00 Одесса 2.0 3.0 759 98 В 7 08 ЧАСОВ
08.02.18 05:00 Одесса 2.0 4.0 761 98 В 7 05 ЧАСОВ
08.02.18 02:00 Одесса 2.0 4.0 763 93 В 9 02 ЧАСА
07.02.18 11:00 Одесса 3.0 4.0 764 88 Ю-В 7 23 ЧАСА
07.02.18 08:00 Одесса 4.0 4.0 765 83 Ю-В 7 20 ЧАСОВ
07.02.18 05:00 Одесса 4.0 5.0 766 85 Ю-В 8 17 ЧАСОВ
07.02.18 02:00 Одесса 3.0 5.0 767 88 Ю-В 6 14 ЧАСОВ
07.02.18 11:00 Одесса 3.0 4.0 768 97 Ю-В 5 11 ЧАСОВ
07.02.18 08:00 Одесса 2.0 4.0 768 97 В 5 08 ЧАСОВ
07.02.18 05:00 Одесса 1.0 4.0 768 95 В 4 05 ЧАСОВ
06.02.18 08:00 Одесса -1.0 4.0 767 87 С-В 5 20 ЧАСОВ
06.02.18 11:00 Одесса 1.0 3.0 765 90 С 1 11 ЧАСОВ
06.02.18 05:00 Одесса 2.0 3.0 763 78 Ю-З 3 05 ЧАСОВ
06.02.18 02:00 Одесса 1.0 3.0 764 74 Ю-З 1 02 ЧАСА
05.02.18 11:00 Одесса -1.0 4.0 764 76 Ю-З 1 23 ЧАСА
05.02.18 08:00 Одесса -1.0 4.0 764 80 З 1 20 ЧАСОВ
05.02.18 05:00 Одесса 1.0 3.0 764 68 З 1 17 ЧАСОВ
05.02.18 02:00 Одесса 1.0 3.0 763 63 С-З 1 14 ЧАСОВ
Количество строк
1 2 3 4 5 6 7 8 9 10
Page 5 of 330